Regional Weather Roundup
Issued by NWS Newport/Morehead, NC

Current Version | Previous Version | Graphics & Text | Print | Product List | Glossary On
Versions: 1 2 3 4 5 6 7 8 9 10 11 12 13 14 15 16 17 18 19 20 21 22 23 24 25 26 27 28 29 30 31 32 33 34 35 36 37 38 39 40 41 42 43 44 45 46 47 48 49 50
000 ASUS42 KMHX 250813 RWRMHX WEATHER ROUNDUP FOR EASTERN NORTH CAROLINA NATIONAL WEATHER SERVICE NEWPORT/MOREHEAD CITY NC 400 AM EDT WED APR 25 2018 NOTE: "FAIR" INDICATES FEW OR NO CLOUDS BELOW 12,000 FEET WITH NO SIGNIFICANT WEATHER AND/OR OBSTRUCTIONS TO VISIBILITY NCZ015>017-031-032-045>047-102-103-250900- NORTH COAST CITY SKY/WX TMP DP RH WIND PRES REMARKS EDENTON NOT AVBL ELIZABETH CITY MOCLDY 62 62 100 SE3 29.76F KITTY HAWK FOG 57 57 100 CALM 29.76F VSB 3/4 MANTEO FAIR 62 61 96 S6 29.78F $$ NCZ045>047-081-094-103-104-250900- CENTRAL COAST CITY SKY/WX TMP DP RH WIND PRES REMARKS FRISCO FAIR 66 63 90 SW8 29.79S $$ NCZ095-097-098-100-101-250900- SOUTHERN COAST CITY SKY/WX TMP DP RH WIND PRES REMARKS BEAUFORT FAIR 62 61 96 S6 29.77F CEDAR ISLAND NOT AVBL JACKSONVILLE FAIR 62 61 96 S5 29.75F PINEY ISLAND NOT AVBL WILMINGTON FAIR 61 58 90 SW6 29.76F $$ NCZ011>013-027>030-043-044-078>080-089-090>093-098-250900- COASTAL PLAIN CITY SKY/WX TMP DP RH WIND PRES REMARKS AHOSKIE CLOUDY 61 61 100 CALM 29.75F CLINTON NOT AVBL ELIZABETHTOWN FAIR 59 58 97 MISG 29.76S GOLDSBORO LGT RAIN 63 59 88 CALM 29.73S GREENVILLE CLOUDY 63 63 100 S6 29.78F HAVELOCK NOT AVBL KENANSVILLE FOG 59 59 100 CALM 29.75S VSB 1/2 KINSTON CLOUDY 61 60 99 S3 29.76F NEW BERN MOCLDY 60 60 100 S3 29.77F RICHLANDS FAIR 59 58 96 S3 29.76F ROCKY MOUNT CLOUDY 60 60 100 SE3 29.75S FOG WASHINGTON CLOUDY 62 61 96 CALM 29.76F WHITEVILLE MOCLDY 60 58 93 CALM 29.75F $$ AMZ130-135-150-152-154-156-158-170-250-252-270-ANZ085-086-088-633-658-670-250900- MARINE OBSERVATIONS STATION/POSITION TIME TEMP WIND PRES WAVE SWELL AIR SEA DIR/SP/G HT/PER HT/PER (UTC) (F) (DEG/KT/KT) (MB) (FT/S) (FT/S) CHESAPEAKE LIGHT NOT AVBL 64 E VA BEACH 0750 58 50 170/ 4/ 4 1009.4 14/11 15/11 DUCK 0748 56 50 140/ 8/ 10 1007.7 2 E DUCK 0800 51 N/A 8/10 3/11 OREGON INLET 0742 61 54 180/ 7/ 9 1008.0 13E OREGON INLT 0748 53 N/A 12/10 13/10 HATTERAS CG 0748 65 62 210/ 6/ 8 1008.3 DIAMOND BUOY 0800 69 70 240/ 12/ 16 1008.7 CAPE LOOKOUT 0800 190/ 5/ 6 1008.6 BEAUFORT LAB 0748 62 63 190/ 5/ 6 1008.3 30 SE NEW RVR IN 0708 68 67 220/ 12/ 16 1005.9 30 SE NEW RVR IN 0800 67 N/A 8/10 3/11 27 SE WRIGHTSVLE 0708 67 65 230/ 16/ 21 1008.3 5 SE WRIGHTSVLE 0708 63 62 230/ 10/ 14 1007.0 225 S CAPE HAT 0800 72 73 170/ 21/ 27 1010.6 41 SE CHARLESTON 0750 69 240/ 14/ 17 1009.3 6/10 5/10 $$

USA.gov is the U.S. government's official web portal to all federal, state and local government web resources and services.